Find Starlink 1221

NORAD ID: 45227 Int'l Des: 2020-012 Owner: SPXS Country: US Constellation: starlink operational
LEOCIRCULAR

当前视图

正在加载3D地球...

About Starlink 1221

Starlink 1221 (NORAD 45227) is a starlink constellation satellite (v1.0) launched Feb 17, 2020 by SPXS of US. It operates in LEO, CIRCULAR orbit with a mass of 260.00 kg.

关于 Starlink 1221

正在加载描述...

即将过境

Passes for default location (London). Set your location on the main map for personalized predictions.

高度历史

Loading altitude history...

两行轨道根数

1 45227U 20012BB 26192.80193703 .00009986 00000-0 20644-3 0 9997
2 45227 53.0639 39.5988 0002943 58.5763 301.5531 15.46485471355884
Epoch: Jul 11, 2026 • Age: 8 hours

当前状态

高度 436.2 km
远地点 / 近地点 N/A
速度 7.65 km/s
星下点 -29.42°S, 40.55°E
发射日期 Feb 17, 2020
运行时间 6.3 years
类型 internet

技术详情

分类 Payload
质量 260.00 kg
干质量 248.00 kg
总质量 260.00 kg
长度 0.20 m
直径 2.80 m
跨度 9.00 m
形状 Box + pan
制造商 SPXS
平台类型 Starlink
阶段状态 In Orbit
所有者/国家 SPXS/US

Most Searched